Location: St. Louis
(38.6270°N, 90.1994°W)
Time: 21:09:01
(UTC-06:00)

A-11 Canister half - Pass Details

Date: 01 December 2021
Orbit: 1524 x 1684 km, 47.3° (Epoch: 26 January)

Event Time Altitude Azimuth Distance (km) Brightness Sun altitude
Exits shadow 06:16:13 10° 296° (WNW) 3,955 10.5 -8.6°
Reaches altitude 10° 06:16:20 10° 296° (WNW) 3,919 10.4 -8.6°
Maximum altitude 06:26:13 58° 14° (NNE) 1,854 9.4 -6.8°
Drops below altitude 10° 06:35:45 10° 93° (E) 3,795 12.4 -5.1°
Sets 06:38:53 0° 97° (E) 4,758 13.4 -4.5°
